Regional Weather Roundup
Issued by NWS

Home | Current Version | Previous Version | Graphics & Text | Print | Product List | Glossary On
Versions: 1 2 3 4 5 6 7 8 9 10 11 12 13 14 15 16 17 18 19 20 21 22 23 24 25 26 27 28 29 30 31 32 33 34 35 36 37 38 39 40 41 42 43 44 45 46 47 48 49 50
000
ASUS43 KDTX 290410
RWRMI
MICHIGAN HOURLY REGIONAL WEATHER ROUNDUP
NATIONAL WEATHER SERVICE DETROIT/PONTIAC MI
1100 PM EST WED JAN 28 2015

NOTE: "FAIR" INDICATES FEW OR NO CLOUDS BELOW 12,000 FEET WITH NO
SIGNIFICANT WEATHER AND/OR OBSTRUCTION TO VISIBILITY.

MIZ047>049-052>055-059>063-066>070-074>076-081>083-290500-
SOUTHEAST LOWER MICHIGAN

CITY           SKY/WX    TMP DP  RH WIND       PRES   REMARKS
ADRIAN         CLOUDY    23  15  71 S9        30.11F
ALMA           CLOUDY    26  12  56 S8        30.05F
ANN ARBOR      CLOUDY    24  15  68 SE10      30.11F
BAD AXE        CLOUDY    22  14  71 S15       30.12F
DETROIT CITY   CLOUDY    25  15  66 S9        30.16F
DETROIT        CLOUDY    24  14  65 SE9G17    30.16F
FLINT          CLOUDY    26  11  52 S14       30.09F
GROSSE ILE     CLOUDY    25  16  68 SE13      30.15F
HILLSDALE      CLOUDY    24  16  70 SE10G20   30.04F
HOWELL         CLOUDY    24  11  58 SE13G18   30.07F

CITY           SKY/WX    TMP DP  RH WIND       PRES   REMARKS
JACKSON        CLOUDY    24  15  68 SE14G22   30.06F
LAMBERTVILLE   MOCLDY    27  14  59 SE8       30.14F
LANSING        CLOUDY    25  14  63 SE15G23   30.05F
LAPEER         NOT AVBL
MASON          CLOUDY    24  15  69 S14       30.05F
MONROE         CLOUDY    25  18  74 SE8       30.13F
MT. CLEMENS    CLOUDY    22  18  83 SE12      30.14F
PONTIAC        CLOUDY    23  13  65 SE13      30.10F
PORT HOPE        N/A     24  11  57 S12G20    30.11F
PORT HURON     CLOUDY    23  16  74 S8        30.18S
TRI CITIES     CLOUDY    28  11  48 SE14G21   30.07F
YPSILANTI      CLOUDY    26  15  63 SE13      30.14F
$$
MIZ043>046-050>051-056>058-064>065-071>073-077>080-290500-
SOUTHWEST LOWER MICHIGAN

CITY           SKY/WX    TMP DP  RH WIND       PRES   REMARKS
BATTLE CREEK   CLOUDY    28  15  58 SE13      30.02F
BENTON HARBOR  CLOUDY    28  19  69 SE16G25   29.96F
BIG RAPIDS     CLOUDY    27   9  46 SE10      29.98F
COLDWATER      CLOUDY    25  17  69 SE12G18   30.03F
HOLLAND        CLOUDY    29  16  58 SE17      29.98F
GRAND RAPIDS   CLOUDY    27  14  58 SE12      30.01F
KALAMAZOO      CLOUDY    27  16  63 S12G20    30.01F
MARSHALL       CLOUDY    25  16  67 SE7G22    30.03F
MUSKEGON       CLOUDY    29  13  51 SE15G24   29.98F
$$
MIZ016>042-290500-
NORTHERN LOWER MICHIGAN

CITY           SKY/WX    TMP DP  RH WIND       PRES   REMARKS
ALPENA         CLOUDY    25  14  63 S7        30.07F
BEAVER ISLAND  CLOUDY    29  16  58 CALM      29.97F
BELLAIRE       CLOUDY    29  11  46 S8        29.99F
CADILLAC       CLOUDY    25  10  51 SE9       29.94F
CHARLEVOIX     CLOUDY    28  11  48 SE8       30.01F
FRANKFORT      CLOUDY    30  14  50 SE10      29.94F
GAYLORD        CLOUDY    24  11  57 S13       29.97F
GRAYLING       CLOUDY    26  10  51 SE8       30.00F
HARBOR SPRINGS CLOUDY    29  10  44 E3        29.99F
HOUGHTON LAKE  CLOUDY    25   9  50 SE12      30.00F
MANISTEE       CLOUDY    30   9  40 SE7       29.95F
OSCODA         CLOUDY    27  15  62 S13       30.08F
PELLSTON       CLOUDY    28  13  53 SE8       30.01S
TRAVERSE CITY  CLOUDY    29  11  47 SE9       29.96F
$$
MIZ007>008-015-290500-
EASTERN UPPER MICHIGAN

CITY           SKY/WX    TMP DP  RH WIND       PRES   REMARKS
KINROSS        CLOUDY    25  19  80 SE9       30.01S
MACKINAC ISLAN CLOUDY    29  11  47 SE8       30.00F
NEWBERRY       CLOUDY    24  14  65 SE7       29.96S
S. S. MARIE    CLOUDY    23  16  74 E9        30.01F
$$
MIZ004>006-011>014-085-290500-
CENTRAL UPPER MICHIGAN

CITY           SKY/WX    TMP DP  RH WIND       PRES   REMARKS
MANISTIQUE     CLOUDY    31  22  69 S12       29.94F
ESCANABA       CLOUDY    30  21  69 S9        29.91F
MENOMINEE      CLOUDY    30  21  69 S8        29.88F
SAWYER-GWINN   CLOUDY    28  24  85 S15       29.85F
$$
MIZ001>003-009>011-084-290500-
WESTERN UPPER MICHIGAN

CITY           SKY/WX    TMP DP  RH WIND       PRES   REMARKS
IRON MOUNTAIN  CLOUDY    28  23  81 SE9       29.84F
HOUGHTON       CLOUDY    29  21  72 S7        29.82F
COPPER HARBOR    N/A     32  24  72 SW8       29.84F
IRONWOOD       CLOUDY    28  21  74 SW3       29.79F
$$

ABBREVIATIONS USED IN REMARKS
   TC - TEMPERATURE IN CELSIUS
  WCI - WIND CHILL INDEX
   HX - HEAT INDEX
  VSB - VISIBILITY



USA.gov is the U.S. government's official web portal to all federal, state and local government web resources and services.